#timestamp,LO_Frequency,Hit,StdDev 
1504900815.1,286046998.6,N,0.8
1504900816.0,286046998.6,N,0.7
1504900835.8,286047001.1,N,0.8
1504900855.7,286046999.4,N,0.8
1504900875.5,286046998.8,N,0.8
1504900895.3,286046999.3,N,0.8
1504900915.2,286046998.2,N,0.8
1504900935.0,286046999.4,N,0.8
1504900935.9,286046999.4,N,0.8
1504900955.8,286046996.5,Y,0.0
1504900975.6,286046999.5,P,0.2
1504900995.4,286046999.3,P,0.2
1504901015.3,286046998.3,P,0.5
1504901035.1,286046998.9,N,0.4
1504901055.8,286047001.2,N,0.9
1504901075.7,286046999.3,N,0.8
1504901095.5,286046998.9,N,0.8
1504901115.4,286046998.7,N,0.8
1504901135.2,286046998.6,N,0.8
1504901155.0,286046998.8,N,0.7
1504901155.9,286046998.8,N,0.7
1504901175.8,286047001.2,N,0.9
1504901195.6,286046999.6,N,0.8
1504901215.5,286046997.3,Y,0.0
1504901235.3,286046996.6,P,1.3
1504901255.1,286046998.2,N,1.1
1504901275.9,286046998.7,N,1.0
1504901295.7,286046999.1,N,1.0
1504901315.5,286046996.5,Y,0.0
1504901335.4,286047001.0,P,1.3
1504901355.2,286047001.1,N,1.3
1504901375.1,286047001.2,N,1.2
1504901376.0,286047001.2,N,1.1
1504901395.8,286046998.2,N,1.3
1504901415.6,286046998.6,N,1.4
1504901435.5,286046999.4,N,1.3
1504901455.3,286046999.1,N,1.2
1504901475.2,286046996.5,N,1.5
1504901495.9,286046996.7,N,1.7
1504901515.7,286046998.4,N,1.6
1504901535.6,286046998.9,N,1.5
1504901555.4,286046999.1,N,1.5
1504901575.2,286046999.2,N,1.4
1504901595.1,286046996.9,N,1.5
1504901596.0,286046996.9,N,1.5
1504901615.8,286046996.5,N,1.6
1504901635.7,286046999.5,N,1.6
1504901655.5,286046997.4,N,1.5
1504901675.3,286046997.5,N,1.5
1504901695.2,286046997.3,N,1.5
1504901715.0,286046995.6,N,1.6
1504901715.9,286046995.6,N,1.7
1504901735.8,286046995.3,N,1.7
1504901755.6,286046995.0,N,1.8
1504901775.4,286046995.4,N,1.9
1504901795.3,286046996.2,N,1.9
1504901815.1,286046997.8,N,1.8
1504901835.8,286041286.0,Y,0.0
1504901855.7,286046997.7,P,0.1
1504901875.5,286046996.9,P,0.4
1504901895.4,286046997.0,P,0.4
1504901915.2,286046997.8,Y,0.0
1504901935.0,286047001.1,P,1.9
1504901935.9,286047001.1,N,1.8
1504901955.8,286046999.4,N,1.5
1504901975.6,286046999.1,N,1.4
1504901995.5,286046999.3,N,1.3
1504902015.3,286046998.8,N,1.2
1504902035.1,286046999.0,N,1.1
1504902055.9,286046999.3,N,1.1
1504902075.7,286046998.4,N,1.1
1504902095.5,286046999.2,N,1.0
1504902115.4,286046999.5,N,1.0
1504902135.2,286046998.8,N,0.9
1504902155.1,286046996.5,Y,0.0
1504902156.0,286046996.5,P,1.4
1504902175.8,286046998.2,N,1.1
1504902195.6,286046998.5,N,1.0
1504902215.5,286046998.6,N,0.9
1504902235.3,286046998.9,N,0.9
1504902255.2,286046999.4,N,0.9
1504902275.0,286046996.6,Y,0.0
1504902275.9,286046996.6,P,0.9
1504902295.8,286047000.9,N,1.8
1504902315.6,286046998.1,N,1.5
1504902335.4,286047000.3,N,1.6
1504902355.3,286047000.8,N,1.6
1504902375.1,286047000.7,N,1.6
1504902395.9,286046998.2,N,1.5
1504902415.7,286046998.3,N,1.5
1504902435.5,286046998.1,N,1.4
1504902455.4,286047002.4,N,1.7
1504902475.2,286047000.4,N,1.6
1504902495.0,286047000.0,N,1.6
1504902495.9,286047000.0,N,1.5
1504902515.8,286047000.4,N,1.5
1504902535.6,286046998.1,N,1.5
1504902555.5,286047000.6,N,1.5
1504902575.3,286047001.0,N,1.5
1504902595.1,286047000.9,N,1.4
1504902615.9,286047000.6,N,1.4
1504902635.7,286047001.1,N,1.4
1504902655.6,286047001.0,N,1.4
1504902675.4,286047000.6,N,1.4
1504902695.2,286047000.9,N,1.4
1504902715.1,286047001.2,N,1.4
1504902716.0,286047001.2,N,1.4
1504902735.8,286047001.2,N,1.3
1504902755.6,286046998.1,N,1.4
1504902775.5,286047000.1,N,1.3
1504902795.3,286047000.3,N,1.3
1504902815.2,286047000.2,N,1.3
1504902835.9,286047002.3,N,1.2
1504902855.7,286047002.1,N,1.2
1504902875.6,286047001.7,N,1.2
1504902895.4,286047001.8,N,1.2
1504902915.2,286047003.5,N,1.3
1504902935.1,286047003.2,N,1.4
1504902936.0,286047003.2,N,1.4
1504902955.8,286047004.3,Y,0.0
1504902975.7,286047002.5,P,0.8
1504902995.5,286047002.8,P,0.9
1504903015.4,286047001.8,N,0.8
1504903035.2,286047001.9,N,0.7
1504903055.0,286047002.8,Y,0.0
1504903055.9,286047002.8,P,0.4
1504903075.8,286046999.6,N,1.4
1504903095.6,286046997.0,N,2.3
1504903115.5,286046997.1,N,2.4
1504903135.3,286046999.6,N,2.2
1504903155.1,286046996.7,N,2.3
1504903175.9,286046996.9,N,2.3
1504903195.7,286046999.4,N,2.1
1504903215.6,286046996.5,N,2.2
1504903235.4,286046999.1,N,2.1
1504903255.2,286046999.3,N,2.0
1504903275.1,286046999.0,N,1.9
1504903276.0,286046999.0,N,1.8
1504903295.8,286046999.1,N,1.8
1504903315.7,286046998.5,N,1.7
1504903335.5,286046999.1,N,1.7
1504903355.3,286046996.9,N,1.7
1504903375.2,286046997.3,N,1.7
1504903395.0,286046997.5,N,1.7
1504903395.9,286046997.5,N,1.6
1504903415.8,286046997.6,N,1.6
1504903435.6,286046996.9,N,1.6
1504903455.4,286046996.9,N,1.6
1504903475.3,286046996.9,N,1.6
1504903495.1,286046997.1,N,1.6
1504903515.8,286046997.3,N,1.6
1504903535.7,286046997.3,N,1.5
1504903555.5,286046997.3,N,1.5
1504903575.4,286046997.8,N,1.5
1504903595.2,286046996.7,N,1.3
1504903615.0,286046997.0,N,1.0
1504903615.9,286046997.0,N,1.0
1504903635.8,286046996.5,Y,0.0
1504903655.6,286047001.2,P,1.7
1504903675.5,286047000.6,N,1.5
1504903695.3,286046998.4,N,1.5
1504903715.2,286046998.2,N,1.4
1504903735.9,286046998.7,N,1.3
1504903755.7,286046998.7,N,1.2
1504903775.6,286046998.4,N,1.2
1504903795.4,286047001.1,N,1.3
1504903815.2,286047000.7,N,1.3
1504903835.1,286047000.4,N,1.3
1504903836.0,286047000.4,N,1.2
1504903855.8,286047000.9,N,1.2
1504903875.7,286047000.5,N,1.2
1504903895.5,286047000.9,N,1.2
1504903915.3,286047000.8,N,1.2
1504903935.2,286047000.6,N,1.2
1504903955.0,286046998.2,N,1.2
1504903955.9,286046998.2,N,1.2
1504903975.8,286046996.8,N,1.4
1504903995.6,286046997.6,N,1.4
1504904015.4,286046997.2,N,1.4
1504904035.3,286046999.2,N,1.4
1504904055.1,286046997.3,N,1.4
1504904075.8,286046996.8,N,1.5
1504904095.7,286046999.5,N,1.5
1504904115.5,286046996.8,N,1.5
1504904135.4,286046996.6,N,1.5
1504904155.2,286046996.8,N,1.6
1504904175.0,286046996.6,N,1.6
1504904175.9,286046996.6,N,1.6
1504904195.8,286046997.0,N,1.6
1504904215.6,286046997.0,N,1.6
1504904235.5,286046998.9,N,1.6
1504904255.3,286046998.8,N,1.6
1504904275.1,286047001.1,N,1.7
1504904295.9,286047000.7,N,1.7
1504904315.7,286047000.7,N,1.7
1504904335.5,286047000.5,N,1.7
1504904355.4,286047000.2,N,1.7
1504904375.2,286047000.9,N,1.7
1504904395.1,286047000.7,N,1.7
1504904396.0,286047000.7,N,1.7
